{"data":{"norad_id":51768,"epoch":"2026-09-20T04:21:38.314080Z","epoch_age_seconds":79137,"freshness":"FRESH","line1":"1 51768U 22017A   26263.18169345  .00031364  00000+0  93564-3 0  9991","line2":"2 51768  53.1588 172.8741 0002709  92.4143 267.7170 15.34394000253582","mean_motion":15.34394,"eccentricity":0.0002709,"inclination_deg":53.1588,"raan_deg":172.8741,"arg_perigee_deg":92.4143,"mean_anomaly_deg":267.717,"bstar":0.00093564,"rev_number":25358,"period_min":93.84812505784,"perigee_km":460.86788507754,"apogee_km":464.57426198178,"semimajor_km":6840.8580735297,"source":"CELESTRAK","updated_at":"2026-09-20T09:00:39.935711Z"}}